| time (UTC) | temp C | wind direction | speed KPH | gust KPH | rain 1hr cm | rain 24hr cm | rain mn cm | humidity % | barometer mb |
| 20260505022628 | 16 | 198 | 4.8 | 11.3 | 0.00 | 0.00 | 0.00 | 46 | 1006.6 |
| 20260505021619 | 16 | 142 | 4.8 | 8.0 | 0.00 | 0.00 | 0.00 | 43 | 1006.5 |
| 20260505020630 | 17 | 138 | 4.8 | 11.3 | 0.00 | 0.00 | 0.00 | 42 | 1006.5 |
| 20260505015632 | 17 | 138 | 4.8 | 11.3 | 0.00 | 0.00 | 0.00 | 41 | 1006.5 |
| 20260505014618 | 18 | 162 | 9.7 | 16.1 | 0.00 | 0.00 | 0.00 | 38 | 1006.4 |
| 20260505013625 | 18 | 123 | 6.4 | 12.9 | 0.00 | 0.00 | 0.00 | 32 | 1006.4 |
| 20260505012616 | 18 | 123 | 9.7 | 16.1 | 0.00 | 0.00 | 0.00 | 34 | 1006.6 |
| 20260505011624 | 18 | 118 | 9.7 | 16.1 | 0.00 | 0.00 | 0.00 | 34 | 1006.7 |
| 20260505010614 | 18 | 142 | 12.9 | 22.5 | 0.00 | 0.00 | 0.00 | 35 | 1006.8 |
| 20260505005617 | 17 | 141 | 11.3 | 20.9 | 0.00 | 0.00 | 0.00 | 37 | 1006.8 |
| 20260505004625 | 17 | 134 | 11.3 | 16.1 | 0.00 | 0.00 | 0.00 | 42 | 1007.0 |
| 20260505003614 | 17 | 123 | 6.4 | 14.5 | 0.00 | 0.00 | 0.00 | 44 | 1007.0 |
| 20260505002622 | 17 | 150 | 11.3 | 16.1 | 0.00 | 0.00 | 0.00 | 44 | 1007.1 |
| 20260505001616 | 17 | 134 | 6.4 | 11.3 | 0.00 | 0.00 | 0.00 | 44 | 1007.3 |
| 20260505000624 | 17 | 152 | 6.4 | 12.9 | 0.00 | 0.00 | 0.00 | 44 | 1007.5 |
| 20260504235643 | 17 | 153 | 8.0 | 20.9 | 0.00 | 0.00 | 0.00 | 44 | 1007.7 |
| 20260504234631 | 17 | 142 | 16.1 | 20.9 | 0.00 | 0.00 | 0.00 | 42 | 1007.6 |
| 20260504233619 | 17 | 102 | 14.5 | 30.6 | 0.00 | 0.00 | 0.00 | 41 | 1007.6 |
| 20260504232650 | 17 | 132 | 14.5 | 25.7 | 0.00 | 0.00 | 0.00 | 38 | 1007.6 |
| 20260504231616 | 18 | 123 | 17.7 | 30.6 | 0.00 | 0.00 | 0.00 | 36 | 1007.4 |
| 20260504230622 | 18 | 159 | 22.5 | 30.6 | 0.00 | 0.00 | 0.00 | 37 | 1007.5 |
| 20260504225622 | 17 | 138 | 16.1 | 25.7 | 0.00 | 0.00 | 0.00 | 39 | 1007.4 |
| 20260504224617 | 18 | 142 | 14.5 | 20.9 | 0.00 | 0.00 | 0.00 | 36 | 1007.3 |
| 20260504223628 | 18 | 134 | 11.3 | 19.3 | 0.00 | 0.00 | 0.00 | 34 | 1007.1 |
| 20260504222618 | 18 | 157 | 14.5 | 30.6 | 0.00 | 0.00 | 0.00 | 35 | 1007.1 |
| 20260504221627 | 18 | 175 | 22.5 | 30.6 | 0.00 | 0.00 | 0.00 | 34 | 1007.3 |
| 20260504220641 | 18 | 32 | 3.2 | 25.7 | 0.00 | 0.00 | 0.00 | 31 | 1007.1 |
| 20260504215624 | 18 | 349 | 20.9 | 37.0 | 0.00 | 0.00 | 0.00 | 32 | 1007.1 |
| 20260504214614 | 19 | 355 | 19.3 | 29.0 | 0.00 | 0.00 | 0.00 | 30 | 1007.4 |
| 20260504213624 | 20 | 319 | 17.7 | 29.0 | 0.00 | 0.00 | 0.00 | 29 | 1007.6 |
| 20260504212619 | 20 | 33 | 6.4 | 20.9 | 0.00 | 0.00 | 0.00 | 24 | 1007.4 |
| 20260504211630 | 20 | 348 | 20.9 | 30.6 | 0.00 | 0.00 | 0.00 | 24 | 1007.5 |
| 20260504210638 | 20 | 18 | 12.9 | 22.5 | 0.00 | 0.00 | 0.00 | 25 | 1007.5 |
| 20260504205615 | 20 | 5 | 12.9 | 20.9 | 0.00 | 0.00 | 0.00 | 27 | 1007.6 |
| 20260504204626 | 20 | 5 | 11.3 | 20.9 | 0.00 | 0.00 | 0.00 | 28 | 1007.7 |
| 20260504203614 | 19 | 42 | 4.8 | 33.8 | 0.00 | 0.00 | 0.00 | 34 | 1007.9 |
| 20260504202622 | 20 | 96 | 20.9 | 32.2 | 0.00 | 0.00 | 0.00 | 30 | 1007.8 |
| 20260504201630 | 20 | 295 | 6.4 | 14.5 | 0.00 | 0.00 | 0.00 | 29 | 1008.0 |
| 20260504200624 | 20 | 143 | 4.8 | 16.1 | 0.00 | 0.00 | 0.00 | 27 | 1008.1 |
| 20260504195626 | 20 | 159 | 16.1 | 19.3 | 0.00 | 0.00 | 0.00 | 29 | 1007.9 |
| 20260504194615 | 20 | 162 | 14.5 | 22.5 | 0.00 | 0.00 | 0.00 | 30 | 1007.9 |
| 20260504193644 | 21 | 157 | 8.0 | 25.7 | 0.00 | 0.00 | 0.00 | 28 | 1008.0 |
| 20260504192618 | 22 | 244 | 6.4 | 12.9 | 0.00 | 0.00 | 0.00 | 23 | 1007.9 |
| 20260504191628 | 21 | 143 | 8.0 | 14.5 | 0.00 | 0.00 | 0.00 | 24 | 1008.0 |
| 20260504190619 | 21 | 54 | 3.2 | 12.9 | 0.00 | 0.00 | 0.00 | 25 | 1008.3 |
| 20260504185619 | 21 | 344 | 6.4 | 12.9 | 0.00 | 0.00 | 0.00 | 24 | 1008.3 |
| 20260504184652 | 21 | 269 | 1.6 | 14.5 | 0.00 | 0.00 | 0.00 | 27 | 1008.4 |
| 20260504183622 | 21 | 270 | 4.8 | 14.5 | 0.00 | 0.00 | 0.00 | 28 | 1008.5 |
| 20260504182613 | 21 | 206 | 9.7 | 19.3 | 0.00 | 0.00 | 0.00 | 28 | 1008.7 |
| 20260504181623 | 21 | 194 | 6.4 | 12.9 | 0.00 | 0.00 | 0.00 | 30 | 1008.8 |
| 20260504180624 | 20 | 234 | 3.2 | 16.1 | 0.00 | 0.00 | 0.00 | 32 | 1009.0 |
| 20260504175626 | 20 | 274 | 8.0 | 12.9 | 0.00 | 0.00 | 0.00 | 36 | 1009.2 |
| 20260504174614 | 20 | 253 | 4.8 | 11.3 | 0.00 | 0.00 | 0.00 | 33 | 1009.3 |
| 20260504173642 | 19 | 263 | 4.8 | 11.3 | 0.00 | 0.00 | 0.00 | 34 | 1009.4 |
| 20260504172614 | 18 | 231 | 4.8 | 11.3 | 0.00 | 0.00 | 0.00 | 35 | 1009.6 |
| 20260504171641 | 17 | 263 | 1.6 | 8.0 | 0.00 | 0.00 | 0.00 | 36 | 1009.7 |
| 20260504170628 | 17 | 309 | 4.8 | 8.0 | 0.00 | 0.00 | 0.00 | 35 | 1009.8 |
| 20260504150625 | 10 | 224 | 0.0 | 0.0 | 0.00 | 0.00 | 0.00 | 49 | 1011.0 |
| 20260504140651 | 6 | 218 | 1.6 | 3.2 | 0.00 | 0.00 | 0.00 | 68 | 1011.6 |
| 20260504130626 | 4 | 114 | 0.0 | 3.2 | 0.00 | 0.00 | 0.00 | 69 | 1011.7 |
| 20260504110627 | 6 | 279 | 1.6 | 6.4 | 0.00 | 0.00 | 0.00 | 64 | 1011.2 |
| 20260504081615 | 6 | 275 | 3.2 | 4.8 | 0.00 | 0.00 | 0.00 | 59 | 1011.1 |
| 20260504080624 | 6 | 275 | 0.0 | 3.2 | 0.00 | 0.00 | 0.00 | 60 | 1011.1 |
| 20260504050613 | 12 | 126 | 0.0 | 3.2 | 0.00 | 0.00 | 0.00 | 40 | 1011.0 |
| 20260504045634 | 12 | 126 | 0.0 | 3.2 | 0.00 | 0.00 | 0.00 | 39 | 1011.1 |
| 20260504044620 | 13 | 126 | 3.2 | 3.2 | 0.00 | 0.00 | 0.00 | 39 | 1011.1 |
| 20260504043649 | 13 | 126 | 1.6 | 6.4 | 0.00 | 0.00 | 0.00 | 38 | 1011.1 |
| 20260504042621 | 13 | 128 | 1.6 | 4.8 | 0.00 | 0.00 | 0.00 | 37 | 1011.0 |
| 20260504041630 | 13 | 128 | 3.2 | 6.4 | 0.00 | 0.00 | 0.00 | 37 | 1011.0 |
| 20260504040618 | 13 | 131 | 0.0 | 3.2 | 0.00 | 0.00 | 0.00 | 37 | 1010.9 |
| 20260504035616 | 14 | 132 | 3.2 | 6.4 | 0.00 | 0.00 | 0.00 | 37 | 1010.9 |
| 20260504034628 | 15 | 130 | 1.6 | 4.8 | 0.00 | 0.00 | 0.00 | 36 | 1010.9 |
| 20260504033616 | 15 | 133 | 1.6 | 4.8 | 0.00 | 0.00 | 0.00 | 35 | 1010.8 |
| 20260504032618 | 15 | 133 | 1.6 | 3.2 | 0.00 | 0.00 | 0.00 | 35 | 1010.8 |
| 20260504031621 | 16 | 133 | 1.6 | 4.8 | 0.00 | 0.00 | 0.00 | 33 | 1010.7 |
| 20260504030628 | 16 | 132 | 1.6 | 4.8 | 0.00 | 0.00 | 0.00 | 33 | 1010.6 |
| 20260504025624 | 16 | 132 | 3.2 | 6.4 | 0.00 | 0.00 | 0.00 | 31 | 1010.5 |
| 20260504024622 | 17 | 132 | 4.8 | 6.4 | 0.00 | 0.00 | 0.00 | 31 | 1010.5 |
| 20260504023631 | 17 | 216 | 1.6 | 6.4 | 0.00 | 0.00 | 0.00 | 30 | 1010.4 |